Wind_Speed
5 7 8 8 8 8 5 4 3 3 4 5 5 6 6 6 7 7 7 7 7 7 7 7 7 7 7 6 6 6 6 6 5 5 5 5 4 4 4 4 4 4 4 4 4 4 3 3 3
5 6 6 7 7 4 3 2 5 5 5 5 5 6 7 7 7 7 7 7 7 7 7 8 8 8 8 7 7 6 6 6 6 6 5 5 5 5 5 4 4 4 4 4 4 4 3 3 3
5 6 6 5 4 2 1 4 6 5 5 5 5 6 6 7 7 7 7 7 7 7 7 8 9 8 8 8 8 7 7 7 6 6 5 5 5 5 5 5 4 5 5 5 5 4 3 3 3
6 6 7 4 2 1 2 6 7 6 6 5 6 6 6 7 7 7 7 7 8 8 8 8 9 9 8 8 8 8 7 7 7 6 6 5 5 5 6 6 5 5 6 6 5 4 4 4 3
6 7 5 2 2 3 5 7 5 5 6 6 6 6 6 6 7 7 7 7 7 8 8 8 9 9 9 8 8 8 7 7 7 7 7 6 5 5 6 6 7 6 6 6 6 5 5 5 4
6 5 3 2 2 5 6 6 5 5 6 6 6 7 7 6 7 7 7 7 8 8 8 8 9 9 9 8 8 8 7 7 7 7 7 6 6 6 7 7 7 8 7 7 6 5 5 5 4
5 3 2 4 5 7 7 6 6 5 5 6 7 7 7 7 7 8 8 8 8 8 9 9 8 8 9 8 8 8 8 7 8 7 7 7 6 6 7 7 7 7 8 8 7 5 5 5 4
6 5 4 5 5 7 8 6 6 5 6 6 7 7 6 6 7 8 8 8 9 9 9 9 9 9 9 9 8 8 8 8 8 8 7 7 6 6 7 7 7 7 7 7 7 6 6 6 5
7 6 5 5 7 9 8 7 6 6 6 6 8 8 7 7 7 7 8 8 9 9 10 9 9 9 9 9 9 9 9 9 9 8 8 8 7 7 7 7 7 7 7 7 7 6 5 6 6
8 7 5 8 9 10 8 7 6 6 7 7 7 8 7 7 8 7 8 8 9 10 10 10 10 9 9 10 10 9 9 9 9 9 9 8 7 7 8 8 7 7 7 7 7 6 5 6 6
9 8 8 10 11 11 8 7 8 7 7 8 8 7 7 8 8 8 8 9 10 10 11 11 10 10 10 10 10 10 9 9 9 9 9 8 8 8 9 8 8 8 8 7 7 7 5 5 6
10 10 9 11 12 12 10 10 9 9 8 9 7 7 8 8 8 9 9 9 10 11 11 11 10 11 11 11 11 11 10 10 9 9 10 10 10 9 9 9 9 8 8 8 7 7 6 6 6
11 11 10 11 12 12 12 11 10 9 9 10 9 8 8 9 10 9 9 9 10 11 11 11 11 11 12 12 12 11 11 11 10 10 10 11 10 10 9 9 8 8 8 9 9 8 8 8 8
12 11 11 11 12 11 11 10 10 10 10 10 10 9 10 10 9 10 10 10 10 11 12 12 12 12 13 13 13 12 11 11 10 10 11 11 11 10 10 9 9 9 9 9 9 9 9 9 9
11 10 11 11 11 11 10 10 9 9 10 11 11 10 11 11 10 10 11 11 12 12 12 12 13 13 13 13 13 12 11 11 11 11 11 12 11 10 10 9 10 10 11 10 10 10 10 9 9
10 10 11 11 11 11 11 10 11 10 10 12 12 12 12 12 12 11 12 12 13 12 13 13 13 13 13 13 14 12 12 12 12 12 13 13 13 11 11 11 11 11 11 11 10 10 10 10 10
11 11 12 12 11 10 11 11 12 11 12 13 13 13 13 13 13 12 11 12 13 13 13 13 13 13 13 13 13 12 13 13 13 13 13 14 13 12 12 12 12 11 10 11 10 10 11 11 11
11 11 12 12 10 11 13 12 12 13 12 13 13 14 14 14 14 13 13 13 14 14 13 13 13 13 13 13 13 12 13 13 14 14 14 14 13 12 12 12 12 11 12 12 11 11 11 11 11
12 12 12 13 12 12 14 14 14 13 13 13 13 14 14 15 16 14 14 14 14 14 14 13 13 13 13 13 13 13 13 13 14 14 14 14 13 12 12 12 12 13 13 13 12 12 12 12 12
14 14 13 14 14 13 13 14 14 13 13 14 14 14 15 16 16 15 14 14 14 13 13 13 13 14 14 13 14 14 14 14 14 14 14 14 13 13 13 13 13 13 13 13 12 12 12 12 13
15 14 13 14 14 14 14 14 14 14 14 15 15 16 17 17 17 16 15 14 14 14 14 14 14 14 14 14 14 15 15 15 14 14 14 14 14 13 13 13 13 13 13 14 13 13 13 13 14
17 16 16 15 14 14 14 14 14 15 16 16 17 16 17 18 18 17 16 16 15 15 15 15 15 15 14 14 15 16 16 15 15 15 15 14 14 14 14 14 13 13 14 14 14 14 14 14 14
17 16 17 16 17 16 14 13 14 17 17 17 18 17 17 18 18 18 19 18 16 15 16 16 16 16 15 15 15 16 16 15 15 15 15 15 14 14 15 15 15 14 14 15 15 15 15 15 15
18 17 17 18 17 18 17 15 17 18 19 19 18 18 17 17 18 19 19 19 19 17 17 17 17 17 17 16 16 16 16 15 15 16 16 16 15 15 16 15 16 15 15 16 16 15 15 15 15
19 19 18 17 17 17 16 17 18 18 19 19 20 20 19 19 19 19 19 18 19 19 18 17 17 17 18 17 17 17 16 15 16 16 16 16 16 17 16 16 17 16 16 17 17 16 16 16 16
20 19 18 15 14 15 16 18 19 19 20 19 19 20 21 19 18 18 18 18 19 19 18 18 18 18 18 18 18 17 16 16 17 17 17 18 18 19 18 17 17 17 17 17 17 17 17 16 17
20 20 19 18 16 17 17 18 20 19 20 20 20 20 20 18 18 18 18 18 18 18 18 19 19 19 19 19 18 17 17 17 17 18 18 18 19 19 18 17 17 18 18 17 17 17 17 17 17
22 20 19 20 20 19 19 19 22 22 22 22 20 20 19 18 19 19 19 19 19 19 18 19 19 19 18 18 18 18 17 18 19 19 18 19 19 20 19 19 19 19 18 18 18 18 18 18 18
22 21 22 21 21 20 19 19 21 22 23 23 21 20 20 19 20 20 20 19 19 19 19 19 19 18 18 18 18 18 19 20 20 19 19 20 20 20 20 20 20 20 19 20 20 20 20 20 20
23 22 23 24 24 23 21 22 23 23 24 23 22 22 22 21 21 21 20 20 19 20 20 19 19 19 18 18 18 19 20 20 20 20 20 20 21 21 21 22 21 20 20 21 20 20 20 20 20
Wind_Direction
104 99 96 91 78 67 65 35 315 329 347 6 11 9 7 4 360 1 2 3 5 5 5 3 1 358 358 359 354 349 346 341 340 343 346 348 348 349 347 352 357 357 356 349 339 328 310 297 291
110 111 110 92 77 74 56 337 312 334 346 1 4 1 359 3 3 2 1 1 1 4 5 1 1 356 354 354 353 347 343 341 339 342 346 348 347 349 351 353 357 3 5 358 348 339 329 319 308
116 123 106 77 69 102 40 308 313 324 338 350 350 350 353 1 0 360 359 357 358 2 2 359 360 358 356 354 350 347 346 344 344 344 345 346 348 351 356 356 356 357 2 3 1 357 346 334 318
128 119 97 52 12 89 291 297 311 319 331 337 338 340 348 356 357 358 358 354 354 358 0 0 1 360 359 358 355 352 349 348 348 350 351 347 347 350 359 0 356 351 352 359 5 5 359 340 330
141 112 96 11 321 299 294 292 303 314 321 325 331 330 343 349 352 352 351 350 352 356 358 0 1 1 360 359 359 356 352 348 346 346 347 344 347 348 353 356 351 352 352 352 358 360 358 350 349
146 130 144 244 256 262 275 286 301 311 314 317 320 326 333 343 347 348 348 349 353 356 357 358 359 359 357 357 358 355 351 349 344 341 343 345 348 352 356 0 356 356 354 352 357 355 353 356 356
164 154 206 222 241 273 276 282 289 309 306 310 308 315 321 331 341 346 348 348 351 354 355 357 357 355 353 353 354 351 349 347 346 343 341 340 344 345 348 351 355 356 356 353 357 345 340 345 355
181 188 207 227 247 268 275 281 287 292 298 310 314 312 317 325 332 340 343 344 346 349 352 354 352 349 348 348 347 346 343 342 345 345 342 340 342 343 344 345 349 351 351 349 351 343 344 346 347
196 216 217 216 239 256 270 277 278 289 298 308 311 309 315 323 327 331 337 342 344 344 347 346 345 343 342 343 342 341 338 337 338 340 339 339 337 338 340 341 342 343 341 341 343 340 338 341 348
209 219 225 227 235 244 254 265 275 290 297 297 302 303 312 318 321 327 336 339 339 339 340 338 337 337 337 337 338 337 335 333 335 337 336 337 335 333 334 335 336 338 338 337 340 338 335 335 337
218 218 217 237 241 244 252 259 268 275 279 285 291 299 309 314 318 327 335 336 337 337 338 337 335 335 335 333 333 331 330 329 331 334 334 334 333 331 331 333 334 335 337 337 335 335 330 330 330
224 225 220 239 246 245 249 252 259 263 268 273 279 294 303 308 316 324 327 328 333 333 332 333 332 332 332 330 329 328 326 324 329 331 330 329 330 330 331 333 333 331 330 331 331 329 327 326 328
235 234 233 239 249 253 254 255 258 257 265 279 283 286 296 308 314 315 320 319 321 323 324 325 325 326 326 326 326 325 324 324 329 330 327 326 325 326 327 328 329 329 327 328 326 325 322 321 317
234 238 244 248 252 257 255 256 255 254 265 267 278 292 299 299 302 307 313 314 316 321 321 323 325 325 323 322 321 322 322 325 325 324 325 324 322 319 318 318 321 322 323 322 323 326 323 325 326
235 239 249 254 253 256 255 256 252 253 263 268 277 289 294 297 300 303 309 312 313 318 320 320 322 323 321 320 321 318 319 321 318 319 320 319 317 316 315 317 317 317 319 318 319 323 324 324 325
242 248 256 260 258 258 255 254 255 257 260 266 276 284 287 291 293 297 305 309 310 314 317 316 318 321 321 322 322 319 320 318 316 316 318 317 315 312 311 312 315 316 317 317 318 321 323 323 324
237 246 249 252 249 257 257 256 263 265 263 265 270 277 285 287 289 293 298 304 307 311 315 316 316 319 319 319 321 318 317 316 315 314 316 317 313 310 308 310 314 317 316 315 316 318 318 318 317
232 246 251 248 248 251 253 256 260 266 265 270 275 277 281 283 282 287 291 300 302 307 311 311 313 316 314 314 316 314 313 313 314 315 315 315 311 308 309 310 313 313 314 314 313 313 314 314 316
226 230 241 246 239 244 250 257 261 265 267 265 268 274 281 284 287 285 290 295 298 306 308 309 309 312 312 313 314 314 313 314 314 316 317 315 313 311 307 308 311 311 311 312 313 312 312 311 310
226 223 233 248 245 243 247 256 260 264 268 270 268 270 277 282 285 287 290 293 295 301 304 307 307 309 310 311 314 314 314 313 313 313 313 314 313 310 308 305 308 310 310 310 309 307 308 308 307
234 232 236 246 254 254 252 256 259 256 261 266 268 269 275 277 280 280 285 291 294 299 303 304 306 306 308 310 310 313 315 314 314 311 310 310 311 310 308 307 307 308 309 307 308 305 303 303 304
236 236 241 244 250 253 259 265 264 262 269 273 274 273 274 274 276 277 280 285 291 295 297 301 304 306 306 308 308 310 311 313 311 311 311 313 311 311 310 307 306 305 307 307 308 307 301 299 301
235 238 241 245 249 248 251 258 264 271 271 275 281 279 272 273 274 276 280 283 286 289 293 297 301 304 305 306 308 309 309 308 308 310 310 313 313 311 311 307 305 304 307 309 308 307 305 301 300
236 237 243 244 247 252 251 247 259 268 272 276 280 281 277 274 272 274 276 279 283 285 290 293 295 298 301 304 305 305 305 306 306 309 310 310 310 310 310 307 305 304 305 308 310 308 305 302 301
237 238 242 245 247 254 256 254 257 263 266 271 275 278 279 276 273 274 276 278 282 284 286 289 289 292 296 299 302 302 302 305 307 308 310 309 308 307 306 305 305 302 303 306 307 306 306 303 303
236 235 238 241 248 258 260 260 260 263 266 267 273 276 275 273 273 275 276 277 280 283 286 287 287 289 292 295 299 299 300 304 308 308 307 308 307 308 307 304 303 303 304 306 306 304 304 305 303
234 235 236 240 241 250 255 258 262 260 266 270 272 271 273 272 273 276 278 279 281 282 284 286 286 286 290 291 294 297 300 303 306 307 308 309 308 308 306 304 304 303 303 303 305 304 304 305 305
236 236 238 238 240 247 255 259 261 267 272 274 273 272 272 274 276 277 278 279 280 280 281 285 286 287 289 289 291 296 299 300 303 305 306 309 309 307 304 303 303 302 302 302 303 303 304 305 305
240 236 236 239 240 245 252 261 263 266 269 273 273 275 275 275 277 276 277 278 277 278 279 282 285 287 289 290 291 296 298 298 300 302 303 305 307 308 306 304 301 300 301 301 300 301 301 301 302
240 240 237 239 242 243 246 256 261 267 271 271 271 273 274 276 275 275 278 278 276 276 276 279 282 286 288 288 290 292 296 298 299 299 301 303 305 306 307 305 301 299 299 300 300 300 300 300 300
Height
5901 5902 5902 5903 5904 5904 5904 5905 5904 5902 5901 5901 5900 5899 5898 5897 5897 5898 5894 5892 5891 5890 5889 5888 5887 5886 5885 5884 5883 5882 5881 5879 5878 5877 5876 5875 5874 5872 5871 5870 5869 5868 5867 5866 5866 5866 5865 5865 5865
5902 5903 5904 5904 5904 5905 5904 5904 5903 5903 5902 5901 5900 5899 5898 5897 5896 5895 5893 5893 5892 5891 5889 5888 5887 5886 5885 5884 5883 5882 5881 5879 5878 5877 5876 5875 5874 5873 5871 5870 5869 5868 5867 5866 5866 5865 5865 5865 5865
5902 5903 5904 5904 5904 5905 5905 5904 5904 5903 5902 5901 5900 5900 5899 5898 5897 5896 5894 5893 5892 5891 5890 5889 5887 5887 5886 5884 5883 5882 5881 5880 5878 5877 5876 5875 5874 5873 5872 5871 5869 5868 5867 5867 5866 5865 5865 5864 5864
5902 5903 5905 5906 5905 5905 5905 5905 5904 5903 5902 5901 5901 5900 5899 5898 5897 5896 5895 5894 5893 5891 5890 5889 5888 5887 5886 5885 5883 5882 5881 5880 5879 5877 5876 5875 5874 5873 5872 5871 5870 5869 5868 5867 5866 5865 5865 5864 5864
5902 5903 5905 5905 5906 5905 5905 5905 5904 5904 5903 5902 5901 5900 5899 5898 5897 5896 5895 5894 5893 5892 5890 5889 5888 5887 5886 5885 5884 5882 5881 5880 5879 5878 5876 5875 5875 5873 5873 5871 5870 5869 5868 5868 5867 5866 5865 5865 5864
5901 5903 5905 5905 5907 5906 5905 5904 5904 5904 5903 5902 5901 5900 5899 5898 5897 5896 5895 5894 5893 5892 5890 5889 5888 5887 5886 5885 5884 5883 5882 5880 5879 5878 5877 5876 5875 5874 5873 5872 5871 5869 5869 5868 5867 5866 5865 5865 5864
5902 5902 5903 5905 5906 5906 5905 5904 5904 5904 5903 5902 5901 5900 5899 5898 5897 5896 5895 5894 5893 5892 5891 5889 5888 5888 5887 5886 5884 5883 5882 5881 5880 5878 5877 5876 5875 5874 5873 5872 5871 5870 5869 5868 5867 5866 5866 5865 5864
5901 5903 5903 5904 5905 5905 5904 5904 5904 5903 5902 5902 5901 5900 5899 5898 5897 5897 5896 5895 5893 5892 5891 5890 5889 5888 5887 5886 5885 5883 5882 5881 5880 5878 5877 5876 5875 5874 5873 5872 5871 5870 5869 5868 5867 5866 5866 5865 5864
5901 5903 5902 5904 5905 5904 5904 5904 5903 5903 5902 5901 5900 5899 5899 5898 5897 5897 5896 5895 5894 5892 5891 5890 5889 5888 5887 5886 5885 5884 5882 5881 5880 5879 5877 5876 5875 5874 5873 5872 5871 5870 5869 5868 5867 5866 5865 5865 5864
5900 5901 5902 5903 5903 5902 5902 5903 5903 5903 5902 5901 5900 5899 5898 5898 5897 5897 5896 5895 5894 5893 5891 5890 5888 5887 5887 5886 5884 5883 5882 5881 5880 5879 5878 5877 5875 5874 5873 5872 5871 5870 5869 5868 5867 5866 5865 5865 5864
5899 5899 5899 5900 5900 5900 5901 5902 5902 5902 5901 5900 5899 5899 5898 5898 5897 5896 5896 5895 5894 5892 5891 5889 5888 5887 5886 5885 5884 5883 5881 5881 5879 5878 5877 5876 5875 5874 5873 5872 5871 5870 5869 5868 5867 5866 5865 5864 5864
5897 5897 5898 5899 5899 5899 5900 5900 5901 5901 5900 5899 5898 5898 5898 5897 5897 5896 5895 5894 5893 5892 5891 5890 5888 5887 5886 5885 5884 5883 5881 5880 5879 5878 5877 5876 5875 5874 5873 5872 5871 5870 5869 5868 5867 5866 5865 5864 5863
5894 5895 5896 5896 5897 5898 5898 5898 5899 5899 5899 5898 5897 5897 5897 5897 5896 5895 5895 5894 5892 5892 5890 5889 5888 5887 5886 5884 5883 5882 5881 5879 5878 5877 5876 5875 5874 5873 5872 5871 5870 5869 5868 5867 5866 5865 5864 5863 5863
5892 5893 5893 5894 5895 5896 5896 5897 5897 5897 5897 5897 5896 5896 5896 5896 5895 5894 5894 5893 5892 5891 5890 5889 5888 5887 5885 5884 5883 5881 5880 5879 5878 5876 5875 5875 5874 5873 5871 5870 5869 5868 5867 5866 5866 5865 5864 5863 5862
5889 5890 5892 5892 5893 5894 5895 5895 5895 5895 5896 5896 5895 5895 5895 5894 5893 5893 5892 5892 5891 5890 5889 5888 5887 5886 5884 5883 5882 5880 5879 5878 5877 5876 5874 5874 5872 5871 5870 5869 5868 5867 5866 5865 5864 5863 5863 5862 5861
5887 5889 5890 5891 5892 5892 5894 5894 5894 5894 5894 5894 5894 5893 5893 5893 5892 5891 5891 5890 5889 5888 5888 5886 5885 5884 5883 5882 5880 5879 5878 5877 5876 5875 5874 5872 5871 5870 5869 5868 5867 5866 5865 5864 5863 5862 5861 5860 5859
5885 5887 5888 5890 5890 5891 5892 5892 5892 5892 5892 5891 5892 5891 5890 5891 5890 5889 5889 5889 5888 5887 5886 5885 5884 5883 5882 5881 5879 5878 5877 5875 5875 5873 5872 5871 5869 5868 5867 5867 5866 5865 5864 5863 5862 5861 5860 5859 5858
5883 5885 5887 5888 5888 5890 5890 5889 5890 5890 5890 5889 5889 5889 5889 5888 5887 5887 5887 5887 5886 5885 5884 5883 5883 5881 5880 5879 5878 5876 5875 5874 5873 5872 5870 5869 5868 5867 5866 5865 5864 5863 5862 5861 5860 5859 5858 5857 5856
5880 5883 5885 5885 5886 5887 5888 5888 5887 5888 5888 5887 5887 5887 5886 5886 5885 5884 5884 5884 5883 5883 5882 5882 5881 5880 5878 5877 5876 5875 5873 5872 5871 5870 5868 5867 5866 5865 5864 5863 5862 5862 5861 5860 5858 5857 5856 5855 5854
5877 5879 5881 5881 5882 5884 5885 5885 5885 5884 5885 5885 5885 5885 5884 5883 5883 5882 5883 5882 5882 5881 5880 5879 5878 5877 5876 5875 5874 5873 5871 5870 5869 5867 5866 5865 5864 5863 5862 5861 5860 5860 5859 5857 5856 5855 5854 5853 5852
5875 5876 5877 5879 5880 5881 5882 5882 5882 5881 5881 5881 5882 5882 5882 5881 5880 5880 5880 5880 5879 5879 5878 5877 5876 5875 5874 5873 5872 5871 5869 5868 5867 5865 5864 5863 5862 5861 5860 5859 5858 5857 5856 5855 5854 5853 5851 5851 5849
5872 5874 5875 5875 5876 5877 5879 5879 5877 5878 5878 5879 5879 5879 5879 5878 5878 5877 5877 5877 5877 5876 5875 5874 5874 5873 5872 5871 5869 5868 5867 5865 5864 5863 5862 5860 5859 5859 5858 5857 5855 5855 5854 5852 5851 5850 5848 5847 5846
5869 5871 5872 5873 5874 5874 5875 5876 5877 5875 5876 5876 5876 5876 5875 5875 5875 5874 5874 5873 5873 5873 5873 5872 5871 5870 5869 5868 5867 5865 5864 5863 5862 5861 5860 5858 5857 5856 5855 5854 5853 5852 5851 5850 5848 5847 5845 5844 5843
5865 5867 5868 5869 5871 5872 5873 5874 5875 5873 5872 5872 5872 5872 5871 5871 5871 5870 5870 5870 5869 5869 5869 5869 5868 5867 5867 5866 5864 5863 5862 5861 5860 5858 5857 5856 5855 5854 5853 5852 5851 5850 5848 5847 5845 5844 5842 5841 5839
5861 5864 5865 5866 5867 5868 5870 5870 5871 5870 5869 5868 5868 5868 5867 5867 5867 5867 5866 5866 5866 5865 5865 5865 5865 5864 5864 5863 5861 5860 5859 5858 5857 5856 5855 5854 5853 5851 5850 5849 5848 5847 5846 5844 5842 5841 5839 5838 5836
5857 5860 5862 5864 5866 5867 5866 5866 5867 5866 5865 5864 5865 5864 5864 5864 5863 5863 5863 5862 5862 5861 5861 5861 5861 5861 5860 5860 5858 5857 5856 5855 5854 5853 5852 5851 5849 5848 5846 5846 5845 5844 5842 5841 5839 5837 5836 5834 5833
5853 5855 5858 5860 5861 5863 5862 5862 5861 5861 5861 5861 5861 5860 5860 5860 5859 5859 5859 5859 5858 5858 5858 5858 5857 5857 5857 5856 5855 5854 5853 5852 5851 5850 5849 5848 5846 5845 5843 5842 5841 5840 5838 5837 5835 5834 5832 5831 5829
5848 5851 5853 5855 5856 5858 5859 5859 5858 5856 5857 5856 5854 5855 5855 5855 5855 5855 5854 5855 5855 5855 5854 5854 5853 5853 5853 5852 5852 5850 5850 5849 5848 5847 5846 5845 5843 5841 5840 5839 5837 5836 5834 5833 5831 5830 5828 5827 5825
5844 5846 5848 5850 5852 5854 5855 5856 5852 5851 5851 5851 5851 5851 5850 5851 5851 5850 5850 5850 5850 5850 5850 5850 5849 5849 5849 5848 5848 5847 5846 5845 5844 5843 5842 5841 5839 5838 5836 5835 5833 5831 5830 5828 5827 5826 5824 5822 5821
5838 5841 5843 5845 5846 5848 5850 5852 5847 5847 5847 5847 5847 5847 5847 5847 5847 5845 5845 5845 5846 5845 5845 5845 5845 5845 5845 5844 5844 5843 5842 5841 5840 5839 5838 5836 5835 5833 5831 5830 5828 5827 5825 5824 5822 5821 5819 5818 5816